Weather History for PHLI - January, 2013

Change the Weather History Date:

Wednesday, January 2, 2013

  Actual Average Record
Temperature  
Mean Temperature 72 °F 72 °F  
Max Temperature 76 °F 78 °F 84 °F (1981)
Min Temperature 68 °F 66 °F 57 °F (2010)
Degree Days  
Heating Degree Days 0 0  
Month to date heating degree days 0 0  
Since 1 July heating degree days 0 0  
Cooling Degree Days 7 7  
Month to date cooling degree days 14 14  
Year to date cooling degree days 14 14  
Growing Degree Days 22 (Base 50)    
Moisture  
Dew Point 65 °F    
Average Humidity 82    
Maximum Humidity 90    
Minimum Humidity 73    
Precipitation  
Precipitation 0.13 in 0.14 in 1.66 in (1952)
Month to date precipitation 0.29 0.27  
Year to date precipitation 0.29 0.27  
Snow  
Snow 0.00 in - - ()
Month to date snowfall 0.0  
Since 1 July snowfall 0.0  
Snow Depth 0.00 in    
Sea Level Pressure  
Sea Level Pressure 30.08 in    
Wind  
Wind Speed 16 mph (NE)    
Max Wind Speed 22 mph    
Max Gust Speed 26 mph    
Visibility 9 miles    
Events Rain    
T = Trace of Precipitation, MM = Missing Value Source: NWS Daily Summary

Daily Weather History Graph

Daily Weather History Graph

Search for Another Location

Airport or City:

Trip Planner

Search our weather history database for the weather conditions in past years. The results will help you decide how hot, cold, wet, or windy it might be!

Date:

Astronomy

Jan. 02, 2013 Rise Set
Actual Time 7:16 AM HST 6:06 PM HST
Civil Twilight 6:52 AM HST 6:30 PM HST
Nautical Twilight 6:24 AM HST 6:58 PM HST
Astronomical Twilight 5:57 AM HST 7:26 PM HST
Moon 11:07 PM HST (1/2) 10:44 AM HST (1/2)
Length of Visible Light 11h 38m
Length of Day
10h 49m
Waning Gibbous, 73% of the Moon is Illuminated
Jan 2
Waning Gibbous
Jan 4
Last Quarter
Jan 11
New
Jan 18
First Quarter
Jan 26
Full

Hourly Weather History & Observations

Time (HST) Temp. Dew Point Humidity Pressure Visibility Wind Dir Wind Speed Gust Speed Precip Events Conditions
12:53 AM 72.0 °F 63.0 °F 73% 30.11 in 10.0 mi NE 21.9 mph - N/A   Overcast
1:46 AM 71.6 °F 62.6 °F 73% 30.10 in 10.0 mi NE 19.6 mph - N/A   Overcast
1:53 AM 72.0 °F 62.1 °F 71% 30.10 in 10.0 mi NNE 17.3 mph - N/A   Overcast
2:53 AM 72.0 °F 62.1 °F 71% 30.08 in 10.0 mi NE 17.3 mph - N/A   Overcast
3:53 AM 72.0 °F 63.0 °F 73% 30.08 in 10.0 mi NE 16.1 mph - N/A   Overcast
4:53 AM 71.6 °F 62.6 °F 73% 30.08 in 10.0 mi NE 13.8 mph - N/A   Overcast
5:22 AM 69.8 °F 62.6 °F 78% 30.08 in 7.0 mi NNE 16.1 mph - 0.01 in Rain Light Rain
5:29 AM 69.8 °F 62.6 °F 78% 30.08 in 10.0 mi NNE 15.0 mph - 0.01 in   Overcast
5:53 AM 70.0 °F 63.0 °F 78% 30.08 in 10.0 mi NNE 16.1 mph - 0.01 in   Overcast
6:53 AM 69.1 °F 64.0 °F 84% 30.09 in 10.0 mi NNE 15.0 mph - 0.00 in   Overcast
7:05 AM 69.8 °F 64.4 °F 83% 30.09 in 10.0 mi North 10.4 mph - N/A   Overcast
7:09 AM 69.8 °F 64.4 °F 83% 30.10 in 10.0 mi ENE 12.7 mph - N/A   Overcast
7:48 AM 69.8 °F 66.2 °F 88% 30.10 in 9.0 mi North 10.4 mph - 0.05 in Rain Light Rain
7:53 AM 69.1 °F 66.0 °F 90% 30.10 in 10.0 mi NNE 13.8 mph - 0.05 in   Overcast
8:25 AM 69.8 °F 64.4 °F 83% 30.11 in 10.0 mi North 9.2 mph - N/A   Overcast
8:36 AM 69.8 °F 66.2 °F 88% 30.11 in 10.0 mi North 9.2 mph - N/A   Mostly Cloudy
8:53 AM 71.1 °F 66.0 °F 84% 30.11 in 10.0 mi NNE 15.0 mph - N/A   Mostly Cloudy
9:15 AM 73.4 °F 66.2 °F 78% 30.12 in 10.0 mi NE 17.3 mph 20.7 mph N/A   Overcast
9:53 AM 73.9 °F 64.9 °F 73% 30.13 in 10.0 mi NNE 17.3 mph - N/A   Overcast
10:53 AM 73.9 °F 66.0 °F 76% 30.12 in 10.0 mi NE 15.0 mph - N/A   Overcast
11:53 AM 73.9 °F 66.0 °F 76% 30.10 in 10.0 mi ENE 17.3 mph - N/A   Overcast
12:53 PM 75.0 °F 66.0 °F 73% 30.06 in 10.0 mi NE 16.1 mph - 0.00 in   Mostly Cloudy
1:44 PM 73.4 °F 64.4 °F 73% 30.04 in 10.0 mi NE 17.3 mph - N/A   Mostly Cloudy
1:53 PM 73.9 °F 66.0 °F 76% 30.03 in 10.0 mi NE 16.1 mph - N/A   Overcast
2:53 PM 73.0 °F 64.9 °F 76% 30.02 in 6.0 mi ENE 18.4 mph - 0.00 in Rain Light Rain
3:10 PM 71.6 °F 66.2 °F 83% 30.03 in 10.0 mi NE 16.1 mph - 0.01 in   Overcast
3:53 PM 71.1 °F 66.0 °F 84% 30.02 in 8.0 mi NE 19.6 mph - 0.01 in Rain Light Rain
4:00 PM 71.6 °F 66.2 °F 83% 30.02 in 8.0 mi NE 18.4 mph - 0.00 in Rain Light Rain
4:13 PM 71.6 °F 66.2 °F 83% 30.03 in 10.0 mi NE 16.1 mph - 0.00 in   Overcast
4:53 PM 72.0 °F 66.0 °F 81% 30.03 in 10.0 mi NE 15.0 mph - 0.00 in   Overcast
5:53 PM 72.0 °F 64.9 °F 78% 30.04 in 10.0 mi NE 17.3 mph - N/A   Overcast
6:53 PM 72.0 °F 64.9 °F 78% 30.05 in 10.0 mi ENE 15.0 mph - N/A   Overcast
7:53 PM 72.0 °F 64.9 °F 78% 30.07 in 10.0 mi ENE 15.0 mph - N/A   Overcast
8:53 PM 71.1 °F 64.9 °F 81% 30.09 in 10.0 mi NE 17.3 mph - 0.00 in   Overcast
9:44 PM 71.6 °F 66.2 °F 83% 30.10 in 4.0 mi NE 17.3 mph 23.0 mph 0.01 in Rain Heavy Rain
9:53 PM 71.1 °F 66.0 °F 84% 30.09 in 6.0 mi NNE 15.0 mph - 0.04 in Rain Light Rain
10:36 PM 71.6 °F 64.4 °F 78% 30.10 in 10.0 mi NE 17.3 mph - 0.00 in   Overcast
10:53 PM 71.1 °F 66.0 °F 84% 30.09 in 10.0 mi ENE 19.6 mph 24.2 mph 0.00 in   Overcast
11:24 PM 69.8 °F 64.4 °F 83% 30.10 in 10.0 mi NE 16.1 mph - 0.00 in   Overcast
11:53 PM 70.0 °F 66.0 °F 87% 30.09 in 5.0 mi NE 13.8 mph - 0.00 in Rain Light Rain